When you browse on this site, cookies collect data to enhance your experience and personalize the content and advertising you see.
Visit our Privacy Policy to learn more. By continuing to use the site, you agree to this use of cookies and data.
  • In Czech Republic
  • List of Countries
  • For 7 days
  • Water Temperature
  • Satellite Maps
  • Weather Map
  • Weather Widgets
  • user-avatar
    Login

    Hourly Weather Ujkowice

    Today, 17 February, Sunday

    Time Temperature Precipitation Wind Pressure Humidity
    00:00 +1°C° 0 mm 4 mps 746 mmHg 84%
    01:00 +1°C° 0 mm 4 mps 746 mmHg 84%
    02:00 +2°C° 0 mm 3 mps 746 mmHg 86%
    03:00 +1°C° 0 mm 4 mps 746 mmHg 85%
    04:00 +1°C° 0 mm 4 mps 745 mmHg 85%
    05:00 +1°C° 0 mm 4 mps 745 mmHg 85%
    06:00 +1°C° 0 mm 4 mps 745 mmHg 84%
    07:00 +1°C° 0 mm 4 mps 745 mmHg 84%
    08:00 +1°C° 0 mm 4 mps 745 mmHg 83%
    09:00 +2°C° 0 mm 5 mps 745 mmHg 77%
    10:00 +5°C° 0 mm 5 mps 745 mmHg 70%
    11:00 +7°C° 0 mm 5 mps 745 mmHg 63%
    12:00 +8°C° 0 mm 5 mps 745 mmHg 59%
    13:00 +9°C° 0 mm 5 mps 745 mmHg 56%
    14:00 +10°C° 0 mm 5 mps 745 mmHg 52%
    15:00 +9°C° 0 mm 5 mps 745 mmHg 56%
    16:00 +8°C° 0 mm 4 mps 745 mmHg 59%
    17:00 +8°C° 0 mm 4 mps 744 mmHg 62%
    18:00 +7°C° 0 mm 3 mps 744 mmHg 68%
    19:00 +5°C° 0 mm 3 mps 744 mmHg 73%
    20:00 +4°C° 0 mm 3 mps 745 mmHg 79%
    21:00 +3°C° 0 mm 3 mps 745 mmHg 80%
    22:00 +3°C° 0 mm 3 mps 745 mmHg 81%
    23:00 +2°C° 0 mm 3 mps 745 mmHg 83%

    Tomorrow, 18 February, Monday

    Time Temperature Precipitation Wind Pressure Humidity
    00:00 +3°C° 0 mm 2 mps 745 mmHg 83%
    01:00 +3°C° 0 mm 2 mps 745 mmHg 84%
    02:00 +3°C° 0 mm 2 mps 745 mmHg 85%
    03:00 +2°C° 0 mm 2 mps 745 mmHg 85%
    04:00 +2°C° 0 mm 2 mps 745 mmHg 86%
    05:00 +3°C° 0 mm 1 mps 744 mmHg 86%
    06:00 +3°C° 0 mm 1 mps 744 mmHg 86%
    07:00 +2°C° 0 mm 1 mps 745 mmHg 87%
    08:00 +1°C° 0 mm 0 mps 745 mmHg 87%
    09:00 +3°C° 0 mm 0 mps 745 mmHg 81%
    10:00 +4°C° 0 mm 0 mps 745 mmHg 75%
    11:00 +6°C° 0 mm 0 mps 745 mmHg 69%
    12:00 +7°C° 0 mm 0 mps 745 mmHg 66%
    13:00 +8°C° 0 mm 0 mps 744 mmHg 62%
    14:00 +9°C° 0 mm 0 mps 744 mmHg 59%
    15:00 +10°C° 0 mm 1 mps 744 mmHg 62%
    16:00 +9°C° 0 mm 1 mps 744 mmHg 65%
    17:00 +9°C° 0 mm 1 mps 744 mmHg 68%
    18:00 +8°C° 0 mm 1 mps 744 mmHg 74%
    19:00 +6°C° 0 mm 2 mps 744 mmHg 80%
    20:00 +4°C° 0 mm 2 mps 744 mmHg 86%
    21:00 +4°C° 0 mm 2 mps 744 mmHg 87%
    22:00 +3°C° 0 mm 2 mps 744 mmHg 89%
    23:00 +3°C° 0 mm 2 mps 744 mmHg 90%

    Day after tomorrow, 19 February, Tuesday

    Time Temperature Precipitation Wind Pressure Humidity
    00:00 +3°C° 0 mm 2 mps 744 mmHg 90%
    01:00 +2°C° 0 mm 2 mps 743 mmHg 90%
    02:00 +2°C° 0 mm 2 mps 743 mmHg 89%
    03:00 +2°C° 0 mm 2 mps 743 mmHg 89%
    04:00 +3°C° 0 mm 1 mps 743 mmHg 88%
    05:00 +2°C° 0 mm 1 mps 742 mmHg 88%
    06:00 +2°C° 0 mm 1 mps 742 mmHg 87%
    07:00 +2°C° 0 mm 1 mps 742 mmHg 86%
    08:00 +2°C° 0 mm 1 mps 742 mmHg 85%
    09:00 +3°C° 0 mm 2 mps 742 mmHg 79%
    10:00 +5°C° 0 mm 2 mps 742 mmHg 72%
    11:00 +7°C° 0 mm 2 mps 742 mmHg 66%
    12:00 +8°C° 0 mm 3 mps 742 mmHg 63%
    13:00 +9°C° 0 mm 3 mps 742 mmHg 60%
    14:00 +10°C° 0 mm 3 mps 741 mmHg 57%
    15:00 +9°C° 0 mm 3 mps 741 mmHg 60%
    16:00 +9°C° 0 mm 3 mps 741 mmHg 63%
    17:00 +8°C° 0 mm 3 mps 740 mmHg 66%
    18:00 +7°C° 0 mm 3 mps 740 mmHg 70%
    19:00 +5°C° 0 mm 3 mps 740 mmHg 75%
    20:00 +4°C° 0 mm 4 mps 740 mmHg 80%
    21:00 +4°C° 0 mm 4 mps 740 mmHg 80%
    22:00 +3°C° 0 mm 4 mps 740 mmHg 81%
    23:00 +3°C° 0 mm 4 mps 740 mmHg 81%

    20 February, Wednesday

    Time Temperature Precipitation Wind Pressure Humidity
    00:00 +3°C° 0 mm 4 mps 740 mmHg 82%
    01:00 +3°C° 0 mm 4 mps 741 mmHg 84%
    02:00 +1°C° 0 mm 4 mps 741 mmHg 85%
    03:00 +1°C° 0 mm 4 mps 741 mmHg 85%
    04:00 +1°C° 0 mm 4 mps 741 mmHg 84%
    05:00 +1°C° 0 mm 4 mps 741 mmHg 84%
    06:00 +1°C° 0.6 mm 4 mps 741 mmHg 87%
    07:00 +1°C° 0.6 mm 4 mps 741 mmHg 89%
    08:00 +1°C° 0.6 mm 4 mps 741 mmHg 92%
    09:00 +3°C° 0.1 mm 4 mps 742 mmHg 86%
    10:00 +4°C° 0.1 mm 4 mps 742 mmHg 81%
    11:00 +5°C° 0.1 mm 5 mps 742 mmHg 75%
    12:00 +5°C° 0 mm 5 mps 742 mmHg 72%
    13:00 +5°C° 0 mm 5 mps 742 mmHg 68%
    14:00 +6°C° 0 mm 5 mps 742 mmHg 64%
    15:00 +6°C° 0 mm 5 mps 742 mmHg 65%
    16:00 +5°C° 0 mm 4 mps 742 mmHg 66%
    17:00 +5°C° 0 mm 4 mps 742 mmHg 67%
    18:00 +5°C° 0.1 mm 4 mps 743 mmHg 70%
    19:00 +4°C° 0.1 mm 4 mps 743 mmHg 74%
    20:00 +4°C° 0.1 mm 4 mps 744 mmHg 78%
    21:00 +3°C° 0.1 mm 3 mps 744 mmHg 79%
    22:00 +3°C° 0.1 mm 3 mps 744 mmHg 81%
    23:00 +3°C° 0.1 mm 3 mps 744 mmHg 82%

    21 February, Thursday

    Time Temperature Precipitation Wind Pressure Humidity
    00:00 +2°C° 0 mm 3 mps 745 mmHg 85%
    01:00 +1°C° 0 mm 3 mps 745 mmHg 88%
    02:00 +1°C° 0 mm 3 mps 745 mmHg 90%
    03:00 0°C° 0 mm 3 mps 745 mmHg 91%
    04:00 0°C° 0 mm 3 mps 745 mmHg 91%
    05:00 0°C° 0 mm 3 mps 745 mmHg 92%
    06:00 0°C° 0 mm 3 mps 745 mmHg 90%
    07:00 0°C° 0 mm 3 mps 745 mmHg 89%
    08:00 +1°C° 0 mm 3 mps 745 mmHg 88%
    09:00 +2°C° 0 mm 3 mps 746 mmHg 85%
    10:00 +3°C° 0 mm 4 mps 746 mmHg 83%
    11:00 +3°C° 0 mm 4 mps 746 mmHg 81%
    12:00 +4°C° 0 mm 4 mps 746 mmHg 79%
    13:00 +4°C° 0 mm 4 mps 746 mmHg 77%
    14:00 +5°C° 0 mm 4 mps 745 mmHg 76%
    15:00 +5°C° 0 mm 3 mps 745 mmHg 75%
    16:00 +6°C° 0 mm 2 mps 745 mmHg 75%
    17:00 +6°C° 0 mm 2 mps 745 mmHg 75%
    18:00 +6°C° 0.2 mm 2 mps 745 mmHg 78%
    19:00 +5°C° 0.2 mm 2 mps 745 mmHg 82%
    20:00 +5°C° 0.2 mm 2 mps 745 mmHg 85%
    21:00 +5°C° 0.5 mm 2 mps 745 mmHg 85%
    22:00 +4°C° 0.5 mm 3 mps 745 mmHg 86%
    23:00 +4°C° 0.5 mm 3 mps 745 mmHg 87%

    22 February, Friday

    Time Temperature Precipitation Wind Pressure Humidity
    00:00 +3°C° 0.2 mm 3 mps 744 mmHg 87%
    01:00 +3°C° 0.2 mm 3 mps 744 mmHg 87%
    02:00 +3°C° 0.2 mm 3 mps 744 mmHg 86%
    03:00 +3°C° 0 mm 4 mps 743 mmHg 86%
    04:00 +3°C° 0 mm 4 mps 743 mmHg 85%
    05:00 +3°C° 0 mm 4 mps 742 mmHg 85%
    06:00 +3°C° 0.3 mm 4 mps 742 mmHg 86%
    07:00 +3°C° 0.3 mm 4 mps 742 mmHg 88%
    08:00 +3°C° 0.3 mm 4 mps 742 mmHg 89%
    09:00 +4°C° 0.5 mm 4 mps 742 mmHg 89%
    10:00 +4°C° 0.5 mm 4 mps 742 mmHg 90%
    11:00 +4°C° 0.5 mm 4 mps 741 mmHg 90%
    12:00 +4°C° 0.7 mm 4 mps 741 mmHg 90%
    13:00 +4°C° 0.7 mm 4 mps 741 mmHg 91%
    14:00 +5°C° 0.7 mm 3 mps 741 mmHg 91%
    15:00 +5°C° 0.3 mm 3 mps 742 mmHg 91%
    16:00 +5°C° 0.3 mm 3 mps 742 mmHg 91%
    17:00 +4°C° 0.3 mm 3 mps 743 mmHg 91%
    18:00 +4°C° 0.2 mm 4 mps 744 mmHg 89%
    19:00 +2°C° 0.2 mm 5 mps 745 mmHg 88%
    20:00 +1°C° 0.2 mm 6 mps 745 mmHg 86%
    21:00 -1°C° 0.2 mm 6 mps 747 mmHg 84%
    22:00 -2°C° 0.2 mm 6 mps 748 mmHg 82%
    23:00 -4°C° 0.2 mm 6 mps 749 mmHg 79%
    Show more